HYS983 LUKK-URSS

Flight info

Callsign HYS983
Flight time 1h 28m
Altitude 35000
Route LIPTA T34 KODRU DCT GLT DCT DUNAV DCT TIRVO DCT TUREL/K0850F350 DCT BABIN DCT LAROM DCT IBROK DCT NEVKA DCT SOROK DCT ARBAD DCT PEVAT DCT KULEM DCT KUSAL DCT RENAT B549 LIMAS B367 MOBIT MOBIT1K
Aircraft A320/M-SDE3FGHIRWY/LB1

Departure

Time 2026-05-05 14:33
Airport Chişinău International Airport (LUKK)

Arrival

Time 2026-05-05 16:01
Airport Sochi International Airport (URSS)
Time Latitude Longitude Altitude Speed Heading
2026-05-05 14:12 46.93371 28.93602 408 ft 0 kts
2026-05-05 14:26 46.93380 28.93604 408 ft 2 kts
2026-05-05 14:26 46.93392 28.93606 408 ft 1 kts
2026-05-05 14:27 46.93393 28.93606 408 ft 1 kts
2026-05-05 14:27 46.93396 28.93607 408 ft 0 kts
2026-05-05 14:27 46.93401 28.93606 408 ft 2 kts 358°
2026-05-05 14:27 46.93414 28.93581 408 ft 5 kts 287°
2026-05-05 14:28 46.93419 28.93524 408 ft 7 kts 267°
2026-05-05 14:28 46.93381 28.93483 408 ft 8 kts 192°
2026-05-05 14:28 46.93317 28.93470 408 ft 11 kts 186°
2026-05-05 14:28 46.93236 28.93458 409 ft 13 kts 186°
2026-05-05 14:29 46.93158 28.93417 411 ft 12 kts 246°
2026-05-05 14:29 46.93164 28.93282 410 ft 15 kts 277°
2026-05-05 14:29 46.93177 28.93120 410 ft 17 kts 276°
2026-05-05 14:29 46.93194 28.92935 409 ft 20 kts 277°
2026-05-05 14:30 46.93213 28.92714 407 ft 23 kts 276°
2026-05-05 14:30 46.93233 28.92460 406 ft 26 kts 277°
2026-05-05 14:30 46.93256 28.92192 407 ft 27 kts 277°
2026-05-05 14:30 46.93240 28.92043 407 ft 13 kts 214°
2026-05-05 14:31 46.93150 28.92002 408 ft 15 kts 195°
2026-05-05 14:31 46.93041 28.91988 408 ft 17 kts 178°
2026-05-05 14:31 46.92913 28.91994 408 ft 20 kts 179°
2026-05-05 14:31 46.92782 28.92006 409 ft 16 kts 161°
2026-05-05 14:32 46.92759 28.92114 409 ft 13 kts 88°
2026-05-05 14:32 46.92765 28.92401 409 ft 60 kts 88°
2026-05-05 14:32 46.92784 28.93334 408 ft 120 kts 88°
2026-05-05 14:32 46.92813 28.94773 436 ft 160 kts 88°
2026-05-05 14:33 46.92851 28.96442 936 ft 167 kts 89°
2026-05-05 14:33 46.92895 28.98137 1627 ft 166 kts 88°
2026-05-05 14:33 46.92921 28.99861 2195 ft 177 kts 89°
2026-05-05 14:33 46.92941 29.01805 2502 ft 205 kts 89°
2026-05-05 14:34 46.92973 29.04046 2808 ft 236 kts 88°
2026-05-05 14:34 46.92806 29.06566 3214 ft 261 kts 110°
2026-05-05 14:34 46.91718 29.08677 4033 ft 267 kts 145°
2026-05-05 14:34 46.89941 29.09502 4913 ft 273 kts 178°
2026-05-05 14:35 46.88132 29.08816 5657 ft 284 kts 209°
2026-05-05 14:35 46.86726 29.06715 6494 ft 289 kts 241°
2026-05-05 14:35 46.85875 29.04023 6959 ft 294 kts 249°
2026-05-05 14:35 46.85062 29.01282 7002 ft 293 kts 249°
2026-05-05 14:36 46.84251 28.98549 7000 ft 293 kts 248°
2026-05-05 14:36 46.83452 28.95854 7000 ft 293 kts 248°
2026-05-05 14:36 46.82533 28.93193 7001 ft 294 kts 239°
2026-05-05 14:36 46.81351 28.90747 7001 ft 295 kts 232°
2026-05-05 14:37 46.80027 28.88405 7584 ft 300 kts 230°
2026-05-05 14:37 46.78660 28.86092 8540 ft 302 kts 230°
2026-05-05 14:37 46.77282 28.83752 9407 ft 306 kts 231°
2026-05-05 14:37 46.75912 28.81376 10228 ft 312 kts 231°
2026-05-05 14:38 46.74466 28.78828 10526 ft 335 kts 231°
2026-05-05 14:38 46.72942 28.76096 10731 ft 359 kts 232°
2026-05-05 14:38 46.71331 28.73182 11049 ft 376 kts 232°
2026-05-05 14:38 46.69677 28.70184 11663 ft 382 kts 232°
2026-05-05 14:39 46.68000 28.67148 12313 ft 387 kts 232°
2026-05-05 14:39 46.66297 28.64072 13003 ft 392 kts 232°
2026-05-05 14:39 46.64570 28.60968 13702 ft 396 kts 232°
2026-05-05 14:39 46.62775 28.57973 14313 ft 401 kts 225°
2026-05-05 14:40 46.60584 28.55447 14898 ft 404 kts 210°
2026-05-05 14:40 46.57993 28.53874 15478 ft 406 kts 192°
2026-05-05 14:40 46.55192 28.53480 16057 ft 405 kts 174°
2026-05-05 14:40 46.52457 28.54335 16643 ft 402 kts 155°
2026-05-05 14:41 46.50014 28.56277 17257 ft 401 kts 143°
2026-05-05 14:41 46.47659 28.58487 17876 ft 404 kts 143°
2026-05-05 14:41 46.45278 28.60720 18465 ft 407 kts 143°
2026-05-05 14:41 46.42889 28.62957 19009 ft 410 kts 143°
2026-05-05 14:42 46.40513 28.65178 19542 ft 413 kts 144°
2026-05-05 14:42 46.38087 28.67439 20089 ft 416 kts 144°
2026-05-05 14:42 46.35641 28.69709 20619 ft 419 kts 144°
2026-05-05 14:42 46.33174 28.71994 21117 ft 422 kts 144°
2026-05-05 14:43 46.30683 28.74298 21610 ft 425 kts 144°
2026-05-05 14:43 46.28212 28.76581 22087 ft 428 kts 144°
2026-05-05 14:43 46.25693 28.78907 22555 ft 431 kts 144°
2026-05-05 14:43 46.23153 28.81245 23023 ft 434 kts 144°
2026-05-05 14:44 46.20598 28.83596 23465 ft 437 kts 144°
2026-05-05 14:44 46.18022 28.85967 23860 ft 440 kts 144°
2026-05-05 14:44 46.15437 28.88345 24245 ft 442 kts 144°
2026-05-05 14:44 46.12914 28.90660 24607 ft 444 kts 144°
2026-05-05 14:45 46.10216 28.93130 24997 ft 447 kts 144°
2026-05-05 14:45 46.07587 28.95537 25366 ft 449 kts 144°
2026-05-05 14:45 46.04972 28.97934 25771 ft 451 kts 144°
2026-05-05 14:45 46.02318 29.00368 26162 ft 454 kts 144°
2026-05-05 14:46 45.99648 29.02812 26539 ft 456 kts 145°
2026-05-05 14:46 45.96959 29.05269 26934 ft 458 kts 145°
2026-05-05 14:46 45.94261 29.07731 27301 ft 460 kts 145°
2026-05-05 14:46 45.91549 29.10203 27652 ft 462 kts 145°
2026-05-05 14:47 45.88826 29.12683 28037 ft 465 kts 145°
2026-05-05 14:47 45.86094 29.15170 28374 ft 468 kts 145°
2026-05-05 14:47 45.83366 29.17647 28730 ft 470 kts 146°
2026-05-05 14:47 45.80595 29.20150 29107 ft 472 kts 146°
2026-05-05 14:48 45.77808 29.22661 29479 ft 474 kts 146°
2026-05-05 14:48 45.75016 29.25179 29980 ft 472 kts 146°
2026-05-05 14:48 45.72242 29.27684 30451 ft 471 kts 147°
2026-05-05 14:48 45.70377 29.29366 30753 ft 470 kts 146°
2026-05-05 14:49 45.67613 29.31859 30987 ft 470 kts 146°
2026-05-05 14:49 45.64845 29.34358 31042 ft 469 kts 146°
2026-05-05 14:49 45.59320 29.39328 31065 ft 469 kts 147°
2026-05-05 14:50 45.53796 29.44279 31049 ft 469 kts 147°
2026-05-05 14:50 45.48263 29.49224 31054 ft 468 kts 147°
2026-05-05 14:51 45.42801 29.54103 31068 ft 468 kts 147°
2026-05-05 14:51 45.37262 29.59029 31065 ft 468 kts 147°
2026-05-05 14:52 45.31726 29.63937 31066 ft 469 kts 147°
2026-05-05 14:52 45.26191 29.68844 31069 ft 470 kts 147°
2026-05-05 14:53 45.20651 29.73741 31073 ft 469 kts 147°
2026-05-05 14:53 45.15096 29.78644 31075 ft 469 kts 147°
2026-05-05 14:54 45.12327 29.81084 31237 ft 470 kts 147°
2026-05-05 14:54 45.09589 29.83496 31698 ft 468 kts 147°
2026-05-05 14:54 45.06828 29.85926 32184 ft 466 kts 147°
2026-05-05 14:54 45.04073 29.88345 32664 ft 464 kts 147°
2026-05-05 14:55 45.01333 29.90744 33134 ft 463 kts 147°
2026-05-05 14:55 44.98597 29.93135 33599 ft 461 kts 147°
2026-05-05 14:55 44.95867 29.95519 34078 ft 460 kts 146°
2026-05-05 14:55 44.93143 29.97896 34448 ft 460 kts 146°
2026-05-05 14:56 44.90422 30.00270 34805 ft 460 kts 146°
2026-05-05 14:56 44.87690 30.02653 35017 ft 461 kts 146°
2026-05-05 14:56 44.82261 30.07383 35070 ft 460 kts 146°
2026-05-05 14:57 44.76975 30.12283 35071 ft 456 kts 137°
2026-05-05 14:57 44.74751 30.15440 35083 ft 454 kts 126°
2026-05-05 14:57 44.72981 30.19103 35070 ft 452 kts 116°
2026-05-05 14:58 44.71725 30.23138 35070 ft 449 kts 105°
2026-05-05 14:58 44.70992 30.27394 35070 ft 446 kts 96°
2026-05-05 14:58 44.70609 30.36066 35069 ft 444 kts 90°
2026-05-05 14:59 44.70309 30.44688 35069 ft 445 kts 91°
2026-05-05 14:59 44.69993 30.53381 35084 ft 445 kts 90°
2026-05-05 15:00 44.69736 30.60616 35088 ft 445 kts 90°
2026-05-05 15:00 44.69373 30.70725 35088 ft 444 kts 90°
2026-05-05 15:01 44.69048 30.79409 35084 ft 444 kts 90°
2026-05-05 15:01 44.68721 30.88078 35081 ft 444 kts 90°
2026-05-05 15:02 44.68390 30.96746 35092 ft 443 kts 90°
2026-05-05 15:02 44.68055 31.05347 35085 ft 443 kts 90°
2026-05-05 15:03 44.67694 31.14000 35079 ft 443 kts 90°
2026-05-05 15:03 44.67337 31.22635 35075 ft 442 kts 90°
2026-05-05 15:04 44.66982 31.31267 35060 ft 442 kts 90°
2026-05-05 15:04 44.66617 31.39852 35071 ft 442 kts 90°
2026-05-05 15:05 44.66050 31.52818 35062 ft 443 kts 90°
2026-05-05 15:06 44.65666 31.61453 35072 ft 443 kts 90°
2026-05-05 15:06 44.65277 31.70056 35070 ft 443 kts 90°
2026-05-05 15:07 44.64881 31.78707 35075 ft 443 kts 90°
2026-05-05 15:07 44.64485 31.87292 35078 ft 443 kts 91°
2026-05-05 15:08 44.64081 31.95925 35073 ft 442 kts 91°
2026-05-05 15:08 44.63665 32.04538 35068 ft 442 kts 91°
2026-05-05 15:09 44.63236 32.13151 35068 ft 442 kts 91°
2026-05-05 15:09 44.62808 32.21762 35075 ft 441 kts 91°
2026-05-05 15:10 44.62372 32.30362 35065 ft 442 kts 91°
2026-05-05 15:10 44.61932 32.39005 35047 ft 449 kts 91°
2026-05-05 15:11 44.61481 32.47778 35044 ft 450 kts 91°
2026-05-05 15:11 44.61016 32.56583 35045 ft 450 kts 91°
2026-05-05 15:12 44.60551 32.65297 35048 ft 451 kts 91°
2026-05-05 15:12 44.60074 32.74076 35045 ft 451 kts 92°
2026-05-05 15:13 44.59582 32.82839 35045 ft 450 kts 92°
2026-05-05 15:13 44.59092 32.91619 35044 ft 450 kts 92°
2026-05-05 15:14 44.58602 33.00319 35043 ft 450 kts 92°
2026-05-05 15:14 44.58099 33.09091 35058 ft 450 kts 92°
2026-05-05 15:15 44.57597 33.17867 35052 ft 450 kts 92°
2026-05-05 15:15 44.57082 33.26627 35048 ft 451 kts 92°
2026-05-05 15:16 44.56550 33.35384 35044 ft 451 kts 92°
2026-05-05 15:16 44.56017 33.44099 35044 ft 451 kts 92°
2026-05-05 15:17 44.55487 33.52873 35055 ft 451 kts 92°
2026-05-05 15:17 44.54941 33.61643 35055 ft 450 kts 92°
2026-05-05 15:18 44.54392 33.70335 35048 ft 449 kts 92°
2026-05-05 15:18 44.53840 33.79076 35048 ft 449 kts 92°
2026-05-05 15:19 44.53281 33.87806 35045 ft 449 kts 92°
2026-05-05 15:19 44.52709 33.96529 35061 ft 449 kts 92°
2026-05-05 15:20 44.52139 34.05185 35055 ft 448 kts 92°
2026-05-05 15:20 44.51557 34.13881 35053 ft 448 kts 92°
2026-05-05 15:21 44.50970 34.22513 35048 ft 447 kts 93°
2026-05-05 15:21 44.50378 34.31183 35066 ft 447 kts 93°
2026-05-05 15:22 44.49783 34.39861 35061 ft 446 kts 93°
2026-05-05 15:22 44.49180 34.48490 35057 ft 444 kts 93°
2026-05-05 15:23 44.48574 34.57096 35055 ft 444 kts 93°
2026-05-05 15:23 44.47963 34.65644 35050 ft 443 kts 93°
2026-05-05 15:24 44.47351 34.74240 35062 ft 443 kts 94°
2026-05-05 15:24 44.46730 34.82812 35051 ft 442 kts 94°
2026-05-05 15:25 44.46090 34.91389 35042 ft 442 kts 94°
2026-05-05 15:25 44.45451 34.99884 35037 ft 442 kts 94°
2026-05-05 15:26 44.44813 35.08446 35030 ft 441 kts 94°
2026-05-05 15:26 44.44175 35.17001 35044 ft 441 kts 94°
2026-05-05 15:27 44.43525 35.25553 35035 ft 442 kts 94°
2026-05-05 15:27 44.42858 35.34100 35033 ft 441 kts 94°
2026-05-05 15:28 44.42187 35.42572 35029 ft 441 kts 94°
2026-05-05 15:28 44.41509 35.51124 35030 ft 442 kts 94°
2026-05-05 15:29 44.40838 35.59662 35026 ft 442 kts 94°
2026-05-05 15:29 44.40151 35.68211 35030 ft 442 kts 95°
2026-05-05 15:30 44.39453 35.76705 35023 ft 442 kts 95°
2026-05-05 15:30 44.38747 35.85260 35026 ft 442 kts 95°
2026-05-05 15:31 44.38041 35.93799 35028 ft 442 kts 95°
2026-05-05 15:31 44.37331 36.02345 35021 ft 443 kts 95°
2026-05-05 15:32 44.36620 36.10845 35017 ft 443 kts 95°
2026-05-05 15:32 44.35886 36.19415 35018 ft 443 kts 95°
2026-05-05 15:33 44.35152 36.27915 35021 ft 443 kts 95°
2026-05-05 15:33 44.34411 36.36449 35014 ft 442 kts 95°
2026-05-05 15:34 44.33673 36.45000 35011 ft 443 kts 96°
2026-05-05 15:34 44.32921 36.53559 35003 ft 443 kts 96°
2026-05-05 15:35 44.32286 36.60665 35000 ft 444 kts 96°
2026-05-05 15:35 44.31395 36.70624 34998 ft 444 kts 96°
2026-05-05 15:36 44.30752 36.77736 35010 ft 444 kts 96°
2026-05-05 15:36 44.29974 36.86309 34993 ft 444 kts 97°
2026-05-05 15:37 44.29193 36.94828 34998 ft 444 kts 97°
2026-05-05 15:37 44.28403 37.03375 35001 ft 444 kts 97°
2026-05-05 15:38 44.27594 37.11937 35001 ft 444 kts 97°
2026-05-05 15:38 44.26788 37.20485 35011 ft 444 kts 97°
2026-05-05 15:39 44.25985 37.28986 35004 ft 445 kts 97°
2026-05-05 15:39 44.25170 37.37542 35003 ft 445 kts 97°
2026-05-05 15:40 44.24343 37.46110 34999 ft 445 kts 97°
2026-05-05 15:40 44.22794 37.54433 35000 ft 447 kts 116°
2026-05-05 15:41 44.19812 37.62055 34998 ft 448 kts 118°
2026-05-05 15:41 44.16785 37.69665 34991 ft 449 kts 118°
2026-05-05 15:42 44.13772 37.77238 34996 ft 449 kts 118°
2026-05-05 15:42 44.10744 37.84872 34993 ft 450 kts 117°
2026-05-05 15:43 44.07713 37.92494 34991 ft 450 kts 118°
2026-05-05 15:43 44.04668 38.00108 34994 ft 451 kts 118°
2026-05-05 15:44 44.01612 38.07731 34998 ft 451 kts 118°
2026-05-05 15:44 43.98555 38.15343 34997 ft 451 kts 118°
2026-05-05 15:45 43.95505 38.22916 34830 ft 454 kts 118°
2026-05-05 15:45 43.93959 38.26748 34019 ft 451 kts 118°
2026-05-05 15:45 43.92440 38.30506 33033 ft 441 kts 118°
2026-05-05 15:45 43.90953 38.34179 32021 ft 432 kts 118°
2026-05-05 15:46 43.89480 38.37810 30815 ft 429 kts 118°
2026-05-05 15:46 43.88018 38.41413 29415 ft 427 kts 118°
2026-05-05 15:46 43.86562 38.44996 27688 ft 428 kts 119°
2026-05-05 15:46 43.85110 38.48563 25823 ft 432 kts 120°
2026-05-05 15:47 43.83621 38.52224 24272 ft 437 kts 120°
2026-05-05 15:47 43.82127 38.55897 23265 ft 437 kts 120°
2026-05-05 15:47 43.80632 38.59563 22305 ft 434 kts 120°
2026-05-05 15:47 43.79143 38.63210 21406 ft 433 kts 120°
2026-05-05 15:48 43.77670 38.66815 20540 ft 428 kts 120°
2026-05-05 15:48 43.76235 38.70324 19737 ft 422 kts 120°
2026-05-05 15:48 43.74784 38.73865 18875 ft 420 kts 120°
2026-05-05 15:48 43.73360 38.77331 18278 ft 410 kts 120°
2026-05-05 15:49 43.71956 38.80743 17487 ft 405 kts 120°
2026-05-05 15:49 43.70569 38.84109 16715 ft 401 kts 120°
2026-05-05 15:49 43.69209 38.87405 15984 ft 397 kts 120°
2026-05-05 15:49 43.67841 38.90713 15406 ft 398 kts 120°
2026-05-05 15:50 43.66464 38.94042 14884 ft 401 kts 120°
2026-05-05 15:50 43.65082 38.97381 14368 ft 401 kts 120°
2026-05-05 15:50 43.63698 39.00729 13863 ft 399 kts 120°
2026-05-05 15:50 43.62322 39.04054 13297 ft 396 kts 120°
2026-05-05 15:51 43.60955 39.07347 12748 ft 394 kts 120°
2026-05-05 15:51 43.59592 39.10624 12190 ft 393 kts 120°
2026-05-05 15:51 43.58234 39.13884 11661 ft 390 kts 120°
2026-05-05 15:51 43.56882 39.17126 11122 ft 388 kts 120°
2026-05-05 15:52 43.55551 39.20314 10618 ft 387 kts 120°
2026-05-05 15:52 43.54214 39.23509 10265 ft 379 kts 120°
2026-05-05 15:52 43.52929 39.26584 10125 ft 359 kts 120°
2026-05-05 15:52 43.51715 39.29494 10003 ft 341 kts 120°
2026-05-05 15:53 43.50556 39.32264 9882 ft 326 kts 120°
2026-05-05 15:53 43.49447 39.34909 9752 ft 313 kts 120°
2026-05-05 15:53 43.48377 39.37460 9618 ft 301 kts 120°
2026-05-05 15:53 43.47349 39.39914 9372 ft 291 kts 120°
2026-05-05 15:54 43.46344 39.42311 8714 ft 288 kts 120°
2026-05-05 15:54 43.45342 39.44693 8045 ft 286 kts 120°
2026-05-05 15:54 43.44345 39.47060 7391 ft 285 kts 120°
2026-05-05 15:54 43.43368 39.49377 6770 ft 283 kts 120°
2026-05-05 15:55 43.42377 39.51719 6112 ft 282 kts 119°
2026-05-05 15:55 43.41389 39.54049 5460 ft 281 kts 119°
2026-05-05 15:55 43.40411 39.56361 4880 ft 277 kts 118°
2026-05-05 15:55 43.39445 39.58648 4246 ft 275 kts 118°
2026-05-05 15:56 43.38485 39.60918 3622 ft 273 kts 119°
2026-05-05 15:56 43.37534 39.63162 3126 ft 267 kts 119°
2026-05-05 15:56 43.36648 39.65379 3004 ft 260 kts 110°
2026-05-05 15:56 43.36234 39.67653 3009 ft 232 kts 92°
2026-05-05 15:57 43.36302 39.69744 3007 ft 210 kts 77°
2026-05-05 15:57 43.36727 39.71585 3011 ft 197 kts 63°
2026-05-05 15:57 43.37310 39.73268 2912 ft 193 kts 61°
2026-05-05 15:57 43.37881 39.74927 2713 ft 191 kts 60°
2026-05-05 15:58 43.38445 39.76563 2483 ft 191 kts 65°
2026-05-05 15:58 43.39014 39.78217 2240 ft 191 kts 63°
2026-05-05 15:58 43.39583 39.79869 1995 ft 191 kts 63°
2026-05-05 15:58 43.40150 39.81518 1775 ft 188 kts 63°
2026-05-05 15:59 43.40696 39.83106 1508 ft 178 kts 63°
2026-05-05 15:59 43.41207 39.84593 1271 ft 164 kts 63°
2026-05-05 15:59 43.41661 39.85914 1053 ft 144 kts 60°
2026-05-05 15:59 43.42087 39.87184 825 ft 146 kts 65°
2026-05-05 16:00 43.42471 39.88412 722 ft 137 kts 60°
2026-05-05 16:00 43.42905 39.89564 542 ft 134 kts 60°
2026-05-05 16:00 43.43303 39.90715 355 ft 132 kts 63°
2026-05-05 16:00 43.43687 39.91847 214 ft 128 kts 62°
2026-05-05 16:01 43.44069 39.92950 58 ft 124 kts 60°
2026-05-05 16:01 43.44377 39.93836 56 ft 66 kts 65°
2026-05-05 16:01 43.44483 39.94140 64 ft 26 kts 62°
2026-05-05 16:01 43.44561 39.94217 58 ft 17 kts 353°
2026-05-05 16:02 43.44600 39.94138 59 ft 13 kts 248°
2026-05-05 16:02 43.44554 39.94009 58 ft 17 kts 245°
2026-05-05 16:02 43.44497 39.93841 54 ft 22 kts 245°
2026-05-05 16:02 43.44428 39.93638 52 ft 26 kts 244°
2026-05-05 16:03 43.44356 39.93430 48 ft 26 kts 245°
2026-05-05 16:03 43.44311 39.93287 50 ft 10 kts 264°
2026-05-05 16:03 43.44338 39.93235 55 ft 0 kts 355°
2026-05-05 16:07 43.44339 39.93235 55 ft 0 kts 354°